SCP
0 0 0 0 0 0 0 0 0 0 0 0 0 0 0 0 0 0 0 0 0 0 0 0 0 0 0 0 0 0 0 0 0 0 0 0 0 0 0 0 0 0 0 0
0 0 0 0 0 0 0 0 0 0 0 0 0 0 0 0 0 0 0 0 0 0 0 0 0 0 0 0 0 0 0 0 0 0 0 0 0 0 0 0 0 0 0 0
-0 -0 0 0 0 0 0 0 0 0 0 0 0 0 0 0 0 0 0 0 0 0 0 0 0 0 0 0 0 0 0 0 0 0 0 0 0 0 0 0 0 0 0 0
-0 -0 0 0 -0 -0 0 0 0 0 0 0 0 0 0 0 0 0 0 0 0 0 0 0 -0 -0 0 0 0 0 0 0 0 0 0 0 0 0 0 0 0 0 0 0
-0 0 0 0 -0 -0 -0 0 0 0 0 0 0 0 0 0 0 0 0 0 0 0 0 -0 -0 -0 0 0 0 0 0 0 0 0 0 0 0 0 0 0 0 0 0 0
0 0 0 0 -0 -0 -0 -0 0 0 0 0 0 0 0 0 0 0 0 0 -0 -0 0 -0 -0 -0 0 0 0 0 0 0 0 0 0 0 0 0 0 0 0 0 0 0
0 0 0 0 -0 -0 -0 0 0 0 0 0 0 0 0 0 0 0 0 0 -0 -0 -0 -0 -0 -0 0 0 0 0 0 0 0 0 0 0 0 0 0 0 0 0 0 0
0 0 0 0 -0 -0 -0 0 0 0 0 0 0 0 0 0 0 0 0 0 -0 -0 -0 -0 -0 -0 -0 0 0 0 0 0 0 0 0 0 0 0 0 0 0 0 0 0
0 0 0 0 0 0 0 0 0 0 0 0 0 0 0 0 0 0 -0 -0 0 0 0 0 0 0 0 0 0 0 0 0 0 0 0 0 0 0 0 0 0 0 0 0
0 0 0 0 0 0 0 0 0 0 0 0 0 0 0 0 0 0 -0 -0 -0 0 0 0 0 0 -0 -0 0 0 0 0 0 0 0 0 0 0 0 0 0 0 0 0
0 0 0 0 0 0 0 0 0 0 0 0 0 0 0 0 0 0 -0 -0 -0 0 0 0 0 0 -0 -0 0 0 0 0 0 0 0 0 0 0 0 0 0 0 0 0
0 0 0 0 0 0 0 0 0 0 0 0 0 0 0 0 0 -0 -0 -0 -0 -0 -0 -0 -0 -0 -0 0 0 0 0 0 0 0 0 0 0 0 0 0 0 0 0 0
0 0 0 0 0 0 0 0 0 0 0 0 0 0 0 0 0 0 0 0 0 0 0 -0 -0 0 0 0 0 0 0 0 0 0 0 0 0 0 0 0 0 0 0 0
0 0 0 0 0 0 0 0 0 0 0 0 0 0 0 0 0 0 0 0 0 0 0 0 0 0 0 0 0 0 0 0 0 0 0 0 0 0 0 0 0 0 0 0
0 0 0 0 0 0 0 0 0 0 0 0 0 0 0 0 0 0 0 0 0 0 0 0 0 0 0 0 0 0 0 0 0 0 0 0 0 0 0 0 0 0 0 0
0 0 0 0 0 0 0 0 -0 0 0 0 0 0 0 0 0 0 0 0 0 0 0 0 0 0 0 0 0 0 0 0 0 0 0 0 0 0 0 0 0 0 0 0
0 0 0 0 0 0 0 0 -0 -0 -0 0 0 0 0 0 0 0 0 0 0 0 0 0 0 0 0 0 0 0 0 0 0 0 0 0 0 0 0 0 0 0 0 0
0 0 -0 -0 -0 -0 0 0 -0 -0 -0 -0 0 0 0 0 0 0 0 0 0 0 0 0 0 0 0 0 0 0 0 0 0 0 0 0 0 0 0 0 0 0 0 0
0 0 0 -0 -0 -0 -0 0 -0 -0 -0 0 0 0 0 0 0 0 0 0 0 0 0 0 0 0 0 0 0 0 0 0 0 0 0 0 0 0 0 0 0 0 0 0
0 0 0 -0 -0 -0 -0 0 0 0 0 0 0 0 0 0 0 0 0 0 0 0 0 0 0 0 0 0 0 0 0 0 0 0 0 0 0 0 0 0 0 0 0 0
0 0 0 0 0 0 0 0 0 0 0 0 0 0 0 0 0 0 0 0 0 0 0 0 0 0 0 0 0 0 0 0 0 0 0 0 0 0 0 0 0 0 0 0
0 0 0 0 0 0 0 0 0 0 0 0 0 0 0 0 0 0 0 0 0 0 0 0 0 0 0 0 0 0 0 0 0 0 0 0 0 0 0 0 0 0 0 0
0 0 0 0 0 0 0 0 0 0 0 0 0 0 0 0 0 0 0 0 0 0 0 0 0 0 0 0 0 0 0 0 0 0 0 0 0 0 0 0 0 0 0 0
0 0 0 0 0 0 0 0 0 0 0 0 0 -0 0 0 0 0 0 0 0 0 0 0 0 0 0 0 0 0 0 0 0 0 0 0 0 0 0 0 0 0 0 0
0 0 0 0 0 0 0 0 0 0 0 0 0 0 0 0 0 0 0 0 0 0 0 0 0 0 0 0 0 0 0 0 0 0 0 0 0 0 0 0 0 0 0 0
0 0 0 0 0 0 0 0 0 0 0 0 0 0 0 0 0 0 0 0 0 0 0 0 0 0 0 0 0 0 0 0 0 0 0 0 0 0 0 0 0 0 0 0
0 0 0 0 0 0 0 0 0 0 0 0 0 0 0 0 0 0 0 0 0 0 0 0 0 0 0 0 0 0 0 0 0 0 0 0 0 0 0 0 0 0 0 0
Wind_Speed
3 2 2 4 6 7 8 8 8 8 9 11 7 5 5 3 2 2 2 1 1 2 2 2 2 2 2 3 3 3 3 3 3 3 3 3 3 3 3 3 3 3 3 3
2 2 3 5 8 9 9 7 8 8 11 8 5 3 3 4 3 3 3 3 3 3 2 2 2 2 2 3 3 3 3 3 3 3 3 3 3 3 3 3 3 3 3 3
2 3 3 7 9 10 7 7 8 10 10 3 3 4 5 4 4 4 4 4 3 3 3 3 2 2 2 3 3 3 3 3 3 3 4 4 4 3 3 3 3 3 3 3
1 2 6 7 2 5 6 6 7 6 5 4 6 4 4 5 5 5 4 4 3 3 3 2 2 2 2 2 2 2 3 3 3 3 4 4 3 4 4 3 3 3 4 4
2 2 8 6 2 3 4 6 5 7 6 4 3 3 4 3 4 4 4 4 3 3 2 2 2 2 1 2 2 2 3 3 3 3 4 4 4 4 3 3 3 3 3 4
3 3 7 5 1 1 2 5 3 4 5 3 0 1 5 2 1 2 2 2 2 1 1 1 2 1 1 2 2 3 4 4 4 3 4 4 4 4 3 3 4 4 4 4
4 5 9 4 1 2 3 6 2 3 4 3 4 5 3 2 2 2 2 2 1 1 1 2 2 1 2 2 3 4 4 4 4 4 4 4 4 3 3 3 3 3 4 4
5 5 9 2 3 5 6 2 2 2 3 3 4 3 3 2 2 2 2 2 1 1 2 2 1 1 2 3 3 3 3 3 4 4 3 3 3 3 3 3 3 3 3 4
8 8 3 3 5 4 2 3 3 3 3 3 3 3 3 3 3 2 2 2 2 1 2 2 1 1 3 4 3 3 3 3 3 4 3 3 2 3 3 2 2 3 3 3
4 7 4 4 4 3 3 3 3 3 2 3 4 4 3 3 3 2 2 2 1 1 2 2 2 2 3 3 2 2 3 3 3 3 3 3 3 2 2 2 2 3 3 3
5 6 4 4 5 4 3 3 2 2 2 3 3 4 3 3 3 3 3 2 1 2 2 3 3 3 3 2 1 2 2 3 3 3 3 3 3 3 3 3 3 4 3 3
7 5 4 5 3 3 3 3 3 3 3 2 3 4 3 3 3 3 3 2 2 2 3 3 2 3 3 2 1 1 2 3 2 2 3 2 3 3 4 5 6 7 7 6
4 2 3 4 3 2 2 3 3 3 3 3 3 2 2 2 2 2 2 2 2 3 3 3 2 3 3 2 2 2 2 3 2 2 3 3 3 3 4 4 5 6 7 8
3 1 3 3 3 2 2 2 2 2 2 2 2 2 2 2 2 2 3 3 3 2 3 2 2 4 3 2 2 2 3 3 3 2 3 3 3 3 3 3 4 4 5 7
3 3 4 3 2 2 2 1 1 2 2 2 1 1 2 2 3 3 3 3 2 2 3 2 3 4 3 2 2 2 2 2 2 2 2 3 3 3 3 3 4 4 4 5
3 2 2 2 3 3 2 2 2 3 3 2 2 2 2 2 3 3 3 2 2 3 3 3 4 4 3 2 2 2 2 4 3 2 2 2 2 3 3 3 3 3 4 4
1 2 2 3 4 4 3 3 4 4 3 3 3 3 2 2 2 3 3 2 2 3 4 4 4 4 3 2 2 2 2 3 4 3 2 3 3 3 3 3 3 3 4 5
4 4 4 4 4 4 4 3 3 3 3 3 2 2 2 2 3 4 3 3 3 3 3 3 3 3 2 2 2 2 2 2 2 2 2 3 3 3 3 3 4 4 4 4
2 2 3 3 3 3 3 3 3 3 2 2 2 2 3 3 3 3 3 2 3 4 4 3 4 3 2 3 2 1 2 2 2 2 2 4 3 3 3 3 3 3 3 3
1 1 1 2 1 1 2 2 2 2 2 1 2 2 3 3 3 2 2 3 4 4 3 4 3 2 2 3 3 1 1 2 2 2 2 3 3 3 3 3 3 3 3 3
1 2 1 1 2 2 1 1 1 2 2 1 2 2 3 3 2 2 2 3 3 3 3 4 2 2 2 2 2 1 1 2 2 2 3 3 3 3 3 4 4 3 3 3
1 1 1 1 1 2 2 1 1 1 1 1 2 2 2 2 2 2 3 3 3 4 3 2 2 3 3 3 1 1 2 2 2 2 2 3 3 3 3 4 4 4 3 3
1 1 1 1 1 2 2 1 1 1 1 2 2 2 2 2 2 2 3 2 2 4 3 2 3 5 4 2 1 1 2 2 2 3 3 3 3 3 3 4 4 4 3 3
1 1 1 1 1 1 2 2 2 1 2 2 2 2 2 2 2 2 2 4 4 4 2 3 5 4 3 1 1 1 2 2 3 3 3 3 3 3 3 3 4 4 4 4
1 1 0 1 1 1 2 2 2 2 2 2 2 2 2 2 2 2 2 2 4 3 2 3 4 4 2 1 1 2 2 3 3 3 3 3 3 3 3 3 3 4 4 4
1 1 1 1 2 1 1 1 1 1 1 2 2 2 2 1 2 2 2 2 2 3 2 2 2 3 2 2 2 2 3 3 4 3 3 3 4 4 3 4 4 4 4 4
1 1 1 1 1 1 1 1 1 2 2 2 2 2 2 2 1 1 2 1 2 2 2 2 2 2 2 2 2 2 3 3 3 3 3 3 3 3 4 4 4 4 4 4
Wind_Direction
251 265 221 229 226 205 206 208 214 238 242 260 264 271 280 279 280 280 273 272 273 289 303 315 325 334 335 335 340 342 344 341 329 326 325 324 323 319 319 319 311 309 308 305
293 283 258 260 245 225 227 227 232 252 265 261 266 263 264 263 256 256 257 262 273 284 291 296 301 312 325 326 328 336 333 322 323 328 327 323 318 318 320 318 311 312 307 304
261 314 338 269 233 210 211 210 197 225 242 245 260 257 251 247 248 251 254 254 254 261 264 273 279 289 293 302 317 326 322 318 321 323 319 317 316 321 316 312 314 309 303 299
178 50 246 250 224 198 211 234 217 236 255 246 246 266 262 240 234 246 250 251 254 257 265 270 270 286 292 302 309 312 313 312 314 314 312 311 312 309 308 309 309 305 302 299
150 232 276 285 233 177 194 262 227 229 254 270 285 318 288 240 213 227 241 245 245 248 253 261 268 274 293 304 303 306 304 302 303 305 304 305 304 303 305 307 308 303 301 307
153 199 247 259 226 183 115 281 250 209 232 247 115 275 272 277 248 253 269 261 254 258 259 260 270 255 248 277 288 289 292 294 297 298 295 295 296 299 302 299 300 305 306 306
187 226 262 257 214 123 176 251 264 216 227 211 211 229 257 300 305 283 286 275 247 231 247 251 257 241 257 270 275 283 294 299 301 298 293 292 298 299 298 302 308 310 308 307
172 211 252 206 141 188 226 271 258 240 229 224 241 267 279 280 284 292 303 301 278 258 278 276 247 226 261 271 281 292 295 297 298 299 298 306 306 305 303 301 306 307 306 309
196 217 253 189 212 235 238 250 248 234 239 225 242 258 266 269 271 283 289 288 290 264 286 295 279 240 256 278 291 299 305 303 303 307 306 303 294 296 301 298 294 301 305 308
248 263 258 254 264 270 249 247 255 245 241 223 239 255 261 264 270 277 286 278 274 269 279 291 290 283 268 282 288 298 302 303 304 308 309 304 297 291 290 286 287 292 296 296
253 275 296 267 248 257 263 265 276 278 255 234 234 252 250 258 267 270 278 281 262 252 267 279 289 295 299 294 288 291 297 299 304 307 304 303 302 288 285 270 269 279 279 279
228 228 214 252 259 254 252 264 263 266 278 264 233 246 256 259 260 262 268 271 277 276 279 285 291 294 298 290 278 283 298 303 301 301 300 300 302 307 299 288 293 292 285 285
238 251 231 260 278 246 243 268 271 258 253 264 267 246 249 260 264 266 271 271 268 271 278 285 292 294 293 284 277 265 270 285 289 292 293 294 297 303 308 313 307 304 304 303
248 251 269 261 264 278 274 283 289 287 276 262 265 265 255 263 275 276 274 275 280 285 287 283 286 289 289 280 273 270 273 281 287 279 281 284 287 287 289 297 307 309 310 310
250 238 241 269 290 300 296 292 301 294 295 298 284 267 258 260 270 277 285 293 300 296 289 286 287 290 293 280 275 273 278 279 281 281 279 280 283 285 286 288 290 298 308 310
282 281 258 257 269 280 286 269 259 269 275 277 281 278 267 261 271 283 291 285 278 282 284 281 279 285 290 285 284 280 278 287 297 293 288 288 289 288 289 289 291 293 297 302
234 265 263 272 270 277 269 255 244 251 259 263 266 273 278 281 291 294 298 294 276 274 276 272 277 289 286 278 273 272 278 280 291 298 294 291 287 285 283 283 286 287 288 293
226 234 236 241 249 265 278 272 257 255 257 259 266 267 262 256 264 278 290 305 309 303 287 272 276 286 279 274 270 269 273 278 283 285 291 295 294 289 289 286 284 287 294 299
257 249 262 266 257 252 258 266 265 260 261 254 251 255 258 258 260 273 287 292 287 288 290 292 296 306 291 284 294 268 270 283 291 294 292 295 304 301 297 292 287 287 290 294
309 304 302 303 299 256 264 276 274 276 271 253 253 264 274 275 272 275 278 269 258 258 276 290 295 290 288 285 303 276 269 279 287 292 297 297 298 297 294 293 289 285 286 287
322 329 334 329 325 317 285 269 266 276 286 266 245 257 272 283 281 268 268 282 281 279 284 292 301 290 289 291 302 288 280 284 284 284 286 290 295 297 295 293 291 288 285 285
309 314 315 318 326 323 319 308 276 272 288 289 278 273 282 293 298 290 263 256 277 298 309 293 288 288 301 310 304 295 291 290 287 285 284 286 289 292 294 293 289 288 287 287
300 296 298 300 298 304 323 324 309 289 280 277 274 273 271 275 273 273 288 287 288 297 309 290 296 306 318 334 314 300 296 293 289 286 285 286 285 286 289 292 290 288 286 286
303 304 307 314 8 19 333 321 326 317 297 289 274 264 262 283 287 261 265 293 304 307 309 300 309 315 331 345 313 304 297 292 289 288 288 289 288 288 289 292 294 295 292 288
292 293 329 358 334 292 286 315 337 335 330 318 306 295 272 244 252 281 294 294 300 316 319 309 315 324 336 317 302 297 292 285 287 289 286 289 290 292 292 292 292 294 295 292
285 280 279 267 256 263 284 302 306 306 313 316 318 314 306 294 275 282 294 301 300 312 319 314 318 319 315 303 296 293 292 297 303 302 297 296 293 292 292 294 293 292 292 292
328 327 328 325 311 292 289 286 277 282 280 280 295 302 308 311 307 302 301 304 309 316 314 312 311 307 302 299 296 295 294 292 292 293 292 291 289 287 288 289 291 292 292 292